TimePDT,TemperatureF,Dew PointF,Humidity,Sea Level PressureIn,VisibilityMPH,Wind Direction,Wind SpeedMPH,Gust SpeedMPH,PrecipitationIn,Events,Conditions,WindDirDegrees,DateUTC
12:15 AM,69.8,57.2,64,30.04,10.0,NNE,3.5,-,N/A,,Clear,20,2013-07-02 07:15:00
12:35 AM,68.0,57.2,68,30.04,10.0,Calm,Calm,-,N/A,,Clear,0,2013-07-02 07:35:00
12:55 AM,68.0,57.2,68,30.04,10.0,Calm,Calm,-,N/A,,Clear,0,2013-07-02 07:55:00
1:15 AM,68.0,57.2,68,30.05,10.0,Calm,Calm,-,N/A,,Clear,0,2013-07-02 08:15:00
1:35 AM,68.0,55.4,64,30.05,10.0,Calm,Calm,-,N/A,,Clear,0,2013-07-02 08:35:00
1:55 AM,66.2,55.4,68,30.05,10.0,NNE,3.5,-,N/A,,Clear,30,2013-07-02 08:55:00
2:15 AM,66.2,55.4,68,30.05,10.0,Calm,Calm,-,N/A,,Clear,0,2013-07-02 09:15:00
2:35 AM,66.2,55.4,68,30.05,10.0,NE,3.5,-,N/A,,Clear,40,2013-07-02 09:35:00
2:55 AM,64.4,57.2,77,30.04,10.0,Calm,Calm,-,N/A,,Clear,0,2013-07-02 09:55:00
3:15 AM,64.4,57.2,77,30.05,10.0,Calm,Calm,-,N/A,,Clear,0,2013-07-02 10:15:00
3:35 AM,64.4,55.4,73,30.05,10.0,NNE,4.6,-,N/A,,Clear,20,2013-07-02 10:35:00
3:55 AM,64.4,57.2,77,30.05,10.0,Calm,Calm,-,N/A,,Clear,0,2013-07-02 10:55:00
4:15 AM,64.4,57.2,77,30.05,10.0,Calm,Calm,-,N/A,,Partly Cloudy,0,2013-07-02 11:15:00
4:35 AM,64.4,57.2,77,30.05,10.0,Calm,Calm,-,N/A,,Clear,0,2013-07-02 11:35:00
4:55 AM,64.4,57.2,77,30.05,10.0,East,3.5,-,N/A,,Clear,80,2013-07-02 11:55:00
5:15 AM,62.6,57.2,82,30.05,10.0,Calm,Calm,-,N/A,,Clear,0,2013-07-02 12:15:00
5:35 AM,62.6,57.2,82,30.05,10.0,Calm,Calm,-,N/A,,Clear,0,2013-07-02 12:35:00
5:55 AM,64.4,57.2,77,30.05,10.0,North,3.5,-,N/A,,Clear,360,2013-07-02 12:55:00
6:15 AM,64.4,57.2,77,30.06,10.0,Calm,Calm,-,N/A,,Clear,0,2013-07-02 13:15:00
6:35 AM,64.4,57.2,77,30.06,10.0,Calm,Calm,-,N/A,,Clear,0,2013-07-02 13:35:00
6:55 AM,66.2,57.2,73,30.05,10.0,Calm,Calm,-,N/A,,Clear,0,2013-07-02 13:55:00
7:15 AM,66.2,57.2,73,30.06,10.0,Calm,Calm,-,N/A,,Clear,0,2013-07-02 14:15:00
7:35 AM,68.0,57.2,68,30.06,10.0,Calm,Calm,-,N/A,,Clear,0,2013-07-02 14:35:00
7:55 AM,69.8,57.2,64,30.06,10.0,Calm,Calm,-,N/A,,Clear,0,2013-07-02 14:55:00
8:15 AM,71.6,57.2,60,30.06,10.0,Calm,Calm,-,N/A,,Clear,0,2013-07-02 15:15:00
8:35 AM,73.4,59.0,61,30.06,10.0,Calm,Calm,-,N/A,,Clear,0,2013-07-02 15:35:00
8:55 AM,75.2,57.2,53,30.06,10.0,SW,3.5,-,N/A,,Clear,220,2013-07-02 15:55:00
9:15 AM,75.2,59.0,57,30.06,10.0,SW,3.5,-,N/A,,Clear,220,2013-07-02 16:15:00
9:35 AM,75.2,59.0,57,30.05,10.0,South,3.5,-,N/A,,Clear,180,2013-07-02 16:35:00
9:55 AM,75.2,59.0,57,30.05,10.0,Calm,Calm,-,N/A,,Clear,0,2013-07-02 16:55:00
10:15 AM,77.0,59.0,54,30.05,10.0,Calm,Calm,-,N/A,,Clear,0,2013-07-02 17:15:00
10:35 AM,78.8,59.0,51,30.05,10.0,Calm,Calm,-,N/A,,Clear,0,2013-07-02 17:35:00
10:55 AM,80.6,59.0,48,30.04,10.0,South,3.5,-,N/A,,Clear,170,2013-07-02 17:55:00
11:15 AM,82.4,59.0,45,30.04,10.0,South,3.5,-,N/A,,Clear,190,2013-07-02 18:15:00
11:35 AM,86.0,59.0,40,30.03,10.0,SSW,4.6,-,N/A,,Clear,200,2013-07-02 18:35:00
11:55 AM,86.0,59.0,40,30.03,10.0,South,3.5,-,N/A,,Clear,190,2013-07-02 18:55:00
12:15 PM,89.6,59.0,36,30.02,10.0,Calm,Calm,-,N/A,,Clear,0,2013-07-02 19:15:00
12:35 PM,89.6,60.8,38,30.02,10.0,SSW,4.6,-,N/A,,Clear,200,2013-07-02 19:35:00
12:55 PM,91.4,60.8,36,30.02,10.0,Calm,Calm,-,N/A,,Clear,0,2013-07-02 19:55:00
1:15 PM,93.2,60.8,34,30.01,10.0,Calm,Calm,-,N/A,,Clear,0,2013-07-02 20:15:00
1:35 PM,95.0,62.6,34,30.01,10.0,SSE,3.5,-,N/A,,Clear,160,2013-07-02 20:35:00
1:55 PM,95.0,60.8,32,30.01,10.0,South,3.5,-,N/A,,Clear,180,2013-07-02 20:55:00
2:15 PM,95.0,60.8,32,30.00,10.0,South,5.8,-,N/A,,Clear,190,2013-07-02 21:15:00
2:35 PM,98.6,60.8,29,29.99,10.0,SW,5.8,-,N/A,,Clear,220,2013-07-02 21:35:00
2:55 PM,98.6,59.0,27,29.98,10.0,SSW,5.8,-,N/A,,Clear,210,2013-07-02 21:55:00
3:15 PM,98.6,59.0,27,29.98,10.0,SSW,8.1,-,N/A,,Clear,210,2013-07-02 22:15:00
3:35 PM,100.4,59.0,25,29.97,10.0,SSW,10.4,16.1,N/A,,Clear,210,2013-07-02 22:35:00
3:55 PM,100.4,60.8,27,29.96,10.0,SSW,8.1,-,N/A,,Clear,210,2013-07-02 22:55:00
4:15 PM,100.4,60.8,27,29.96,10.0,West,4.6,-,N/A,,Clear,260,2013-07-02 23:15:00
4:35 PM,100.4,59.0,25,29.95,10.0,WSW,6.9,16.1,N/A,,Clear,240,2013-07-02 23:35:00
4:55 PM,100.4,59.0,25,29.95,10.0,WNW,12.7,19.6,N/A,,Clear,290,2013-07-02 23:55:00
5:15 PM,100.4,59.0,25,29.95,10.0,WSW,5.8,19.6,N/A,,Clear,240,2013-07-03 00:15:00
5:35 PM,100.4,59.0,25,29.95,10.0,West,10.4,-,N/A,,Clear,270,2013-07-03 00:35:00
5:55 PM,98.6,59.0,27,29.95,10.0,SSW,5.8,-,N/A,,Clear,200,2013-07-03 00:55:00
6:15 PM,98.6,57.2,25,29.95,10.0,West,11.5,20.7,N/A,,Clear,270,2013-07-03 01:15:00
6:35 PM,98.6,57.2,25,29.95,10.0,SW,8.1,-,N/A,,Clear,230,2013-07-03 01:35:00
6:55 PM,98.6,57.2,25,29.96,10.0,West,4.6,-,N/A,,Clear,280,2013-07-03 01:55:00
7:15 PM,96.8,57.2,27,29.96,10.0,WSW,6.9,-,N/A,,Clear,240,2013-07-03 02:15:00
7:35 PM,95.0,57.2,28,29.96,10.0,SSW,4.6,-,N/A,,Clear,210,2013-07-03 02:35:00
7:55 PM,95.0,57.2,28,29.97,10.0,SW,6.9,-,N/A,,Clear,220,2013-07-03 02:55:00
8:15 PM,93.2,57.2,30,29.97,10.0,SSW,6.9,-,N/A,,Clear,210,2013-07-03 03:15:00
8:35 PM,87.8,64.4,46,29.98,10.0,Calm,Calm,-,N/A,,Clear,0,2013-07-03 03:35:00
8:55 PM,86.0,66.2,51,29.99,10.0,NNE,4.6,-,N/A,,Clear,20,2013-07-03 03:55:00
9:15 PM,82.4,64.4,54,30.00,10.0,NE,3.5,-,N/A,,Clear,40,2013-07-03 04:15:00
9:35 PM,82.4,64.4,54,30.02,10.0,NE,4.6,-,N/A,,Clear,40,2013-07-03 04:35:00
9:55 PM,80.6,62.6,54,30.02,10.0,NNE,5.8,-,N/A,,Mostly Cloudy,30,2013-07-03 04:55:00
10:15 PM,78.8,62.6,57,30.03,10.0,Calm,Calm,-,N/A,,Partly Cloudy,0,2013-07-03 05:15:00
10:35 PM,78.8,62.6,57,30.04,10.0,North,3.5,-,N/A,,Clear,10,2013-07-03 05:35:00
10:55 PM,77.0,62.6,61,30.04,10.0,Calm,Calm,-,N/A,,Clear,0,2013-07-03 05:55:00
11:15 PM,75.2,64.4,69,30.05,10.0,Calm,Calm,-,N/A,,Clear,0,2013-07-03 06:15:00
11:35 PM,75.2,64.4,69,30.05,10.0,Calm,Calm,-,N/A,,Clear,0,2013-07-03 06:35:00
11:55 PM,75.2,62.6,65,30.05,10.0,Calm,Calm,-,N/A,,Clear,0,2013-07-03 06:55:00